Tracking 29892 objects as of 21-Nov-2024
HD Live streaming from Space Station
objects crossing your sky now

STARLINK-30049

Track STARLINK-30049 now!
10-day predictions
STARLINK-30049 is classified as:


NORAD ID: 56294
Int'l Code: 2023-056J
Perigee: 565.8 km
Apogee: 566.7 km
Inclination: 43.0 °
Period: 95.8 minutes
Semi major axis: 6937 km
RCS: Unknown
Launch date: April 19, 2023
Source: United States (US)
Launch site: AIR FORCE EASTERN TEST RANGE (AFETR)
Your satellite tracking list
Your tracking list is empty




NASA's NSSDC Master Catalog

Two Line Element Set (TLE):
1 56294U 23056J   24325.26545393  .00003600  00000-0  28137-3 0  9998
2 56294  43.0012 268.4862 0000652 333.0344  27.0465 15.02539345 88655
Source of the keplerian elements: AFSPC